Location: Aalen
(48.8330°N, 10.1000°E)
Time: 19:56:39
(UTC+02:00)

CAS-6 - Pass Details

Date: 06 April 2023
Orbit: 610 x 632 km, 97.9° (Epoch: 04 June)

Event Time Altitude Azimuth Distance (km) Brightness Sun altitude
Exits shadow 00:48:39 13° 301° (WNW) 1,813 ? -34.4°
Drops below altitude 10° 00:49:29 10° 311° (NW) 2,009 ? -34.4°
Sets 00:52:25 0° 332° (NNW) 2,927 ? -34.5°
